Terminal Aerodrome Forecast
Issued by NWS St Louis, MO

Home | Current Version | Previous Version | Text Only | Print | Product List | Glossary On
Versions: 1 2 3 4 5 6 7 8 9 10 11 12 13 14 15 16 17 18 19 20 21 22 23 24 25 26 27 28 29 30 31
859
FTUS43 KLSX 172058 AAA
TAFSTL
TAF AMD
KSTL 172058Z 1721/1824 27012KT P6SM OVC015
     FM180000 28007KT P6SM OVC015
     FM180600 29004KT P6SM BKN035
     FM181300 VRB03KT 5SM BR SCT035
     FM181500 VRB03KT P6SM SCT035=

USA.gov is the U.S. government's official web portal to all federal, state and local government web resources and services.